Volver al catálogo

STARLINK-33884

ActivoComunicacionesVLEO
NORAD 63770·PAYLOAD·🇺🇸 United States

Lanzado Apr 29, 2025 desde Cape Canaveral Space Force Station

Loading…

Próximos Pases (próximas 24 horas)

TLE

ActualizadoSource: CelesTrak SupGP

Época: Sep 15, 2026, 02:53 UTC

1 63770C 25089V   26258.12062500 -.00033220  00000+0 -12029-2 0  2581
2 63770  43.0013  55.1912 0001553 270.9554   3.7875 15.27602979    14

Sigue STARLINK-33884 en tiempo real con AllMySat

Download on the App Store